SAS841 ENGM-LSZH

Flight info

Callsign SAS841
Flight time N/A
Altitude 37000
Route VIPPA DCT AMRAK/N0432F380 DCT SWALM DCT OMOGI/N0433F390 T721 RILAX
Aircraft A320/M-SDE3FGHIRWY/LB1

Departure

Time N/A
Airport Oslo-Gardermoen International Airport (ENGM)

Arrival

Time 2026-04-26 22:03
Airport Zürich Airport (LSZH)
Time Latitude Longitude Altitude Speed Heading
2026-04-26 20:45 55.87860 9.86322 37303 ft 462 kts 188°
2026-04-26 20:45 55.82524 9.85748 37311 ft 462 kts 188°
2026-04-26 20:46 55.76098 9.85045 37324 ft 462 kts 188°
2026-04-26 20:46 55.69681 9.84347 37327 ft 462 kts 188°
2026-04-26 20:47 55.63261 9.83648 37324 ft 462 kts 188°
2026-04-26 20:47 55.56844 9.82950 37331 ft 462 kts 188°
2026-04-26 20:48 55.50431 9.82247 37329 ft 462 kts 188°
2026-04-26 20:48 55.44006 9.81559 37330 ft 462 kts 188°
2026-04-26 20:49 55.37584 9.80883 37305 ft 462 kts 188°
2026-04-26 20:49 55.31172 9.80190 37320 ft 461 kts 188°
2026-04-26 20:50 55.24759 9.79500 37346 ft 461 kts 188°
2026-04-26 20:50 55.18398 9.78827 37342 ft 461 kts 188°
2026-04-26 20:51 55.11998 9.78080 37316 ft 460 kts 189°
2026-04-26 20:51 55.05631 9.77027 37341 ft 459 kts 191°
2026-04-26 20:52 54.99268 9.75900 37348 ft 459 kts 190°
2026-04-26 20:52 54.92907 9.74833 37347 ft 460 kts 190°
2026-04-26 20:53 54.86535 9.73811 37334 ft 460 kts 190°
2026-04-26 20:53 54.80172 9.72790 37325 ft 459 kts 190°
2026-04-26 20:54 54.73812 9.71768 37332 ft 459 kts 190°
2026-04-26 20:54 54.67455 9.70751 37337 ft 459 kts 190°
2026-04-26 20:55 54.61092 9.69732 37321 ft 459 kts 189°
2026-04-26 20:55 54.54734 9.68712 37337 ft 459 kts 189°
2026-04-26 20:56 54.48374 9.67708 37345 ft 459 kts 189°
2026-04-26 20:56 54.42016 9.66693 37355 ft 459 kts 189°
2026-04-26 20:57 54.35697 9.65681 37322 ft 459 kts 189°
2026-04-26 20:57 54.29335 9.64675 37325 ft 459 kts 189°
2026-04-26 20:58 54.22974 9.63676 37331 ft 459 kts 189°
2026-04-26 20:58 54.16610 9.62675 37330 ft 459 kts 189°
2026-04-26 20:59 54.10246 9.61683 37296 ft 459 kts 189°
2026-04-26 20:59 54.03877 9.60695 37308 ft 460 kts 189°
2026-04-26 21:00 53.97514 9.59712 37313 ft 460 kts 189°
2026-04-26 21:00 53.91134 9.58721 37318 ft 460 kts 189°
2026-04-26 21:01 53.84761 9.57738 37306 ft 459 kts 189°
2026-04-26 21:01 53.78392 9.56762 37312 ft 459 kts 189°
2026-04-26 21:02 53.72029 9.55782 37321 ft 459 kts 189°
2026-04-26 21:02 53.65662 9.54809 37326 ft 459 kts 189°
2026-04-26 21:03 53.59298 9.53838 37312 ft 459 kts 189°
2026-04-26 21:03 53.52927 9.52865 37323 ft 459 kts 189°
2026-04-26 21:04 53.46600 9.51894 37331 ft 460 kts 189°
2026-04-26 21:04 53.40193 9.50923 37320 ft 460 kts 189°
2026-04-26 21:05 53.33863 9.49978 37307 ft 459 kts 189°
2026-04-26 21:05 53.27497 9.49025 37317 ft 460 kts 189°
2026-04-26 21:06 53.21121 9.48068 37321 ft 460 kts 189°
2026-04-26 21:06 53.14747 9.47115 37322 ft 460 kts 189°
2026-04-26 21:07 53.08368 9.46160 37321 ft 460 kts 189°
2026-04-26 21:07 53.01961 9.45221 37321 ft 460 kts 189°
2026-04-26 21:08 52.95592 9.44288 37321 ft 460 kts 189°
2026-04-26 21:08 52.89271 9.43352 37318 ft 459 kts 189°
2026-04-26 21:09 52.82905 9.42418 37297 ft 459 kts 189°
2026-04-26 21:09 52.76549 9.41487 37302 ft 459 kts 189°
2026-04-26 21:10 52.70186 9.40553 37310 ft 459 kts 189°
2026-04-26 21:10 52.63816 9.39610 37309 ft 459 kts 189°
2026-04-26 21:11 52.57439 9.38675 37304 ft 460 kts 189°
2026-04-26 21:11 52.51066 9.37763 37310 ft 460 kts 189°
2026-04-26 21:12 52.44690 9.36850 37313 ft 460 kts 189°
2026-04-26 21:12 52.38312 9.35930 37290 ft 460 kts 189°
2026-04-26 21:13 52.31941 9.35007 37305 ft 460 kts 189°
2026-04-26 21:13 52.25575 9.34081 37312 ft 460 kts 189°
2026-04-26 21:14 52.19190 9.33163 37315 ft 460 kts 189°
2026-04-26 21:14 52.12814 9.32267 37295 ft 460 kts 188°
2026-04-26 21:15 52.06441 9.31365 37298 ft 460 kts 188°
2026-04-26 21:15 52.00062 9.30467 37300 ft 460 kts 188°
2026-04-26 21:16 51.93730 9.29574 37298 ft 460 kts 188°
2026-04-26 21:16 51.87356 9.28671 37290 ft 460 kts 188°
2026-04-26 21:17 51.80979 9.27781 37299 ft 460 kts 188°
2026-04-26 21:17 51.74608 9.26888 37298 ft 460 kts 188°
2026-04-26 21:18 51.68224 9.25993 37305 ft 460 kts 188°
2026-04-26 21:18 51.61849 9.25104 37293 ft 460 kts 188°
2026-04-26 21:19 51.55477 9.24216 37301 ft 460 kts 188°
2026-04-26 21:19 51.49102 9.23320 37301 ft 460 kts 188°
2026-04-26 21:20 51.42722 9.22439 37291 ft 460 kts 188°
2026-04-26 21:20 51.36353 9.21563 37298 ft 460 kts 188°
2026-04-26 21:21 51.29976 9.20705 37310 ft 460 kts 188°
2026-04-26 21:21 51.23637 9.19837 37315 ft 460 kts 188°
2026-04-26 21:22 51.17270 9.18958 37302 ft 459 kts 188°
2026-04-26 21:22 51.10896 9.18090 37310 ft 459 kts 188°
2026-04-26 21:23 51.01336 9.16787 37310 ft 460 kts 188°
2026-04-26 21:23 50.94962 9.15926 37299 ft 460 kts 188°
2026-04-26 21:24 50.88590 9.15069 37300 ft 460 kts 188°
2026-04-26 21:24 50.82203 9.14216 37296 ft 460 kts 188°
2026-04-26 21:25 50.75823 9.13365 37290 ft 460 kts 188°
2026-04-26 21:25 50.69437 9.12509 37290 ft 461 kts 188°
2026-04-26 21:26 50.63095 9.11653 37296 ft 460 kts 188°
2026-04-26 21:26 50.56714 9.10789 37291 ft 460 kts 188°
2026-04-26 21:27 50.50330 9.09945 37270 ft 460 kts 188°
2026-04-26 21:27 50.43948 9.09114 37278 ft 460 kts 188°
2026-04-26 21:28 50.37563 9.08276 37281 ft 460 kts 188°
2026-04-26 21:28 50.31184 9.07422 37278 ft 460 kts 188°
2026-04-26 21:29 50.24804 9.06575 37263 ft 460 kts 187°
2026-04-26 21:29 50.18429 9.05753 37273 ft 459 kts 187°
2026-04-26 21:30 50.12062 9.04934 37275 ft 459 kts 187°
2026-04-26 21:30 50.06777 9.04243 37261 ft 458 kts 188°
2026-04-26 21:31 49.99347 9.03264 37271 ft 459 kts 187°
2026-04-26 21:31 49.92989 9.02442 37269 ft 459 kts 187°
2026-04-26 21:32 49.86631 9.01620 37268 ft 458 kts 187°
2026-04-26 21:32 49.81347 9.00938 37251 ft 458 kts 187°
2026-04-26 21:33 49.74988 9.00124 37261 ft 458 kts 187°
2026-04-26 21:33 49.68628 8.99305 37266 ft 458 kts 187°
2026-04-26 21:34 49.62328 8.98026 37268 ft 455 kts 193°
2026-04-26 21:34 49.56096 8.96295 37262 ft 455 kts 193°
2026-04-26 21:35 49.49866 8.94580 37268 ft 455 kts 193°
2026-04-26 21:35 49.43622 8.92877 37274 ft 455 kts 193°
2026-04-26 21:36 49.37382 8.91176 37266 ft 455 kts 193°
2026-04-26 21:36 49.31142 8.89482 37262 ft 455 kts 193°
2026-04-26 21:37 49.24897 8.87786 37262 ft 456 kts 193°
2026-04-26 21:37 49.18656 8.86084 37260 ft 455 kts 193°
2026-04-26 21:38 49.12457 8.84401 37260 ft 455 kts 193°
2026-04-26 21:38 49.06219 8.82698 37260 ft 456 kts 193°
2026-04-26 21:39 48.99958 8.80999 36912 ft 455 kts 193°
2026-04-26 21:39 48.96838 8.80155 36637 ft 455 kts 193°
2026-04-26 21:39 48.93715 8.79312 36376 ft 456 kts 193°
2026-04-26 21:40 48.90589 8.78466 36121 ft 456 kts 193°
2026-04-26 21:40 48.87466 8.77620 35871 ft 454 kts 193°
2026-04-26 21:40 48.84370 8.76787 35484 ft 451 kts 193°
2026-04-26 21:40 48.81290 8.75962 35018 ft 448 kts 193°
2026-04-26 21:41 48.78219 8.75144 34543 ft 447 kts 193°
2026-04-26 21:41 48.75158 8.74324 34049 ft 445 kts 193°
2026-04-26 21:41 48.72119 8.73509 33549 ft 442 kts 193°
2026-04-26 21:41 48.69148 8.72714 33080 ft 438 kts 193°
2026-04-26 21:42 48.66161 8.71915 32608 ft 435 kts 193°
2026-04-26 21:42 48.63184 8.71118 32137 ft 433 kts 193°
2026-04-26 21:42 48.60230 8.70329 31674 ft 430 kts 193°
2026-04-26 21:42 48.57293 8.69550 31221 ft 428 kts 192°
2026-04-26 21:43 48.54360 8.68777 30787 ft 426 kts 192°
2026-04-26 21:43 48.51442 8.68010 30332 ft 424 kts 192°
2026-04-26 21:43 48.48543 8.67246 29860 ft 422 kts 192°
2026-04-26 21:43 48.45655 8.66483 29442 ft 419 kts 192°
2026-04-26 21:44 48.42795 8.65731 29017 ft 416 kts 192°
2026-04-26 21:44 48.39950 8.64980 28617 ft 413 kts 192°
2026-04-26 21:44 48.37128 8.64225 28215 ft 411 kts 193°
2026-04-26 21:44 48.34326 8.63420 27803 ft 409 kts 194°
2026-04-26 21:45 48.31541 8.62578 27394 ft 407 kts 194°
2026-04-26 21:45 48.28776 8.61716 26987 ft 406 kts 194°
2026-04-26 21:45 48.26014 8.60847 26565 ft 405 kts 194°
2026-04-26 21:45 48.23256 8.59991 26143 ft 403 kts 194°
2026-04-26 21:46 48.20509 8.59152 25703 ft 402 kts 194°
2026-04-26 21:46 48.17768 8.58326 25269 ft 401 kts 194°
2026-04-26 21:46 48.15067 8.57521 24820 ft 401 kts 194°
2026-04-26 21:46 48.12295 8.56702 24358 ft 401 kts 194°
2026-04-26 21:47 48.09559 8.55896 23902 ft 400 kts 194°
2026-04-26 21:47 48.06834 8.55088 23439 ft 398 kts 194°
2026-04-26 21:47 48.04132 8.54285 22943 ft 396 kts 194°
2026-04-26 21:47 48.01492 8.53501 22469 ft 387 kts 194°
2026-04-26 21:48 47.98882 8.52728 22024 ft 378 kts 194°
2026-04-26 21:48 47.96326 8.51991 21580 ft 370 kts 191°
2026-04-26 21:48 47.93781 8.51773 21149 ft 365 kts 179°
2026-04-26 21:48 47.91292 8.52310 20715 ft 360 kts 169°
2026-04-26 21:49 47.88836 8.53098 20284 ft 353 kts 169°
2026-04-26 21:49 47.86482 8.53842 19880 ft 348 kts 169°
2026-04-26 21:49 47.84129 8.54578 19470 ft 342 kts 169°
2026-04-26 21:49 47.81816 8.55297 19069 ft 338 kts 169°
2026-04-26 21:50 47.79530 8.56005 18672 ft 333 kts 169°
2026-04-26 21:50 47.78029 8.56471 18396 ft 331 kts 169°
2026-04-26 21:50 47.75050 8.57399 17851 ft 323 kts 169°
2026-04-26 21:50 47.72869 8.58078 17466 ft 318 kts 169°
2026-04-26 21:51 47.70718 8.58775 17078 ft 314 kts 165°
2026-04-26 21:51 47.68690 8.59957 16689 ft 314 kts 152°
2026-04-26 21:51 47.66889 8.61763 16315 ft 313 kts 139°
2026-04-26 21:51 47.65368 8.64116 15765 ft 320 kts 128°
2026-04-26 21:52 47.63972 8.66702 15337 ft 323 kts 129°
2026-04-26 21:52 47.62560 8.69297 14944 ft 323 kts 129°
2026-04-26 21:52 47.61142 8.71887 14547 ft 324 kts 129°
2026-04-26 21:52 47.59719 8.74478 14149 ft 325 kts 129°
2026-04-26 21:53 47.58292 8.77073 13725 ft 325 kts 129°
2026-04-26 21:53 47.56883 8.79691 13320 ft 324 kts 125°
2026-04-26 21:53 47.55823 8.82632 12917 ft 323 kts 110°
2026-04-26 21:53 47.55291 8.85805 12529 ft 321 kts 96°
2026-04-26 21:54 47.55057 8.89128 12129 ft 320 kts 95°
2026-04-26 21:54 47.54819 8.92393 11737 ft 319 kts 96°
2026-04-26 21:54 47.54576 8.95661 11332 ft 319 kts 96°
2026-04-26 21:54 47.54331 8.98921 10984 ft 314 kts 96°
2026-04-26 21:55 47.53831 9.01940 10839 ft 292 kts 117°
2026-04-26 21:55 47.52663 9.04219 10698 ft 271 kts 141°
2026-04-26 21:55 47.51090 9.05541 10337 ft 260 kts 165°
2026-04-26 21:55 47.49323 9.05823 9852 ft 254 kts 187°
2026-04-26 21:56 47.47573 9.05526 9298 ft 253 kts 188°
2026-04-26 21:56 47.45827 9.05232 8782 ft 252 kts 188°
2026-04-26 21:56 47.44176 9.04514 8296 ft 246 kts 213°
2026-04-26 21:56 47.42991 9.02772 7811 ft 240 kts 241°
2026-04-26 21:57 47.42521 9.00446 7324 ft 238 kts 269°
2026-04-26 21:57 47.42658 8.98013 6787 ft 239 kts 276°
2026-04-26 21:57 47.42844 8.95586 6367 ft 234 kts 276°
2026-04-26 21:57 47.43024 8.93240 5982 ft 228 kts 276°
2026-04-26 21:58 47.43200 8.90905 5490 ft 228 kts 276°
2026-04-26 21:58 47.43372 8.88569 5068 ft 228 kts 276°
2026-04-26 21:58 47.43542 8.86224 5000 ft 230 kts 276°
2026-04-26 21:58 47.43707 8.83955 4998 ft 214 kts 276°
2026-04-26 21:59 47.43864 8.81822 5005 ft 200 kts 276°
2026-04-26 21:59 47.44009 8.79841 4773 ft 191 kts 276°
2026-04-26 21:59 47.44147 8.77941 4445 ft 180 kts 276°
2026-04-26 21:59 47.44280 8.76126 4209 ft 176 kts 278°
2026-04-26 22:00 47.44422 8.74341 4010 ft 168 kts 278°
2026-04-26 22:00 47.44541 8.72734 3825 ft 151 kts 277°
2026-04-26 22:00 47.44629 8.71215 3584 ft 151 kts 277°
2026-04-26 22:00 47.44743 8.69669 3329 ft 155 kts 278°
2026-04-26 22:01 47.44868 8.68055 3153 ft 155 kts 279°
2026-04-26 22:01 47.44987 8.66523 2879 ft 149 kts 278°
2026-04-26 22:01 47.45097 8.65013 2609 ft 147 kts 279°
2026-04-26 22:01 47.45201 8.63496 2411 ft 147 kts 277°
2026-04-26 22:02 47.45305 8.62013 2176 ft 143 kts 277°
2026-04-26 22:02 47.45372 8.61046 2029 ft 136 kts 278°
2026-04-26 22:02 47.45507 8.59252 1767 ft 132 kts 278°
2026-04-26 22:02 47.45602 8.57891 1575 ft 133 kts 277°
2026-04-26 22:03 47.45697 8.56555 1401 ft 125 kts 277°
2026-04-26 22:03 47.45764 8.55571 1398 ft 58 kts 275°
2026-04-26 22:03 47.45765 8.55299 1399 ft 14 kts 225°
2026-04-26 22:03 47.45691 8.55305 1400 ft 8 kts 162°
2026-04-26 22:04 47.45638 8.55330 1397 ft 8 kts 162°
2026-04-26 22:04 47.45578 8.55358 1397 ft 10 kts 162°
2026-04-26 22:04 47.45518 8.55403 1404 ft 11 kts 148°
2026-04-26 22:04 47.45464 8.55449 1397 ft 7 kts 154°
2026-04-26 22:05 47.45410 8.55484 1402 ft 10 kts 156°
2026-04-26 22:05 47.45338 8.55533 1400 ft 12 kts 154°
2026-04-26 22:05 47.45276 8.55605 1399 ft 12 kts 110°
2026-04-26 22:05 47.45266 8.55715 1397 ft 8 kts 96°
2026-04-26 22:06 47.45293 8.55746 1403 ft 6 kts
2026-04-26 22:06 47.45333 8.55752 1397 ft 2 kts
2026-04-26 22:06 47.45344 8.55753 1397 ft 0 kts
2026-04-26 22:06 47.45347 8.55754 1397 ft 0 kts